Powrót do katalogu

STARLINK-32733

AktywnyŁącznośćVLEO
NORAD 62477·PAYLOAD·🇺🇸 United States

Wystrzelony Dec 31, 2024 z Cape Canaveral Space Force Station

Loading…

Następne Przeloty (najbliższe 24 godziny)

TLE

ŚwieżeSource: CelesTrak SupGP

Epoka: Sep 14, 2026, 22:31 UTC

1 62477C 24254R   26257.93868056  .00015263  00000+0  55280-3 0  2576
2 62477  43.0045  27.2089 0001938 271.8723 336.4091 15.27571748    17

Śledź STARLINK-32733 w czasie rzeczywistym z AllMySat

Download on the App Store